Albemarle, NC

2:20 PM EDT on May 23, 2017 (GMT -0400)
Stanly County

Weather History for KVUJ - January, 2014

Change the Weather History Date:

Sunday, January 5, 2014

  Actual Average (KHBI) Record (KHBI)
Temperature  
Mean Temperature 38 °F -  
Max Temperature 42 °F 49 °F 73 °F (1950)
Min Temperature 33 °F 30 °F 8 °F (1981)
Degree Days  
Heating Degree Days 28    
Moisture  
Dew Point 37 °F    
Average Humidity 98    
Maximum Humidity 100    
Minimum Humidity 81    
Precipitation  
Precipitation 0.06 in - - ()
Sea Level Pressure  
Sea Level Pressure 30.10 in    
Wind  
Wind Speed 2 mph (NNE)    
Max Wind Speed 9 mph    
Max Gust Speed -    
Visibility 3 miles    
Events Fog , Rain    
Averages and records for this station are not official NWS values.
T = Trace of Precipitation, MM = Missing Value Source: NWS Daily Summary

Daily Weather History Graph

Daily Weather History Graph

Search for Another Location

Airport or City:

Trip Planner

Search our weather history database for the weather conditions in past years. The results will help you decide how hot, cold, wet, or windy it might be!

Date:

Astronomy

Jan. 05, 2014 Rise Set
Actual Time 7:30 AM EST 5:22 PM EST
Civil Twilight 7:02 AM EST 5:50 PM EST
Nautical Twilight 6:30 AM EST 6:21 PM EST
Astronomical Twilight 5:59 AM EST 6:52 PM EST
Moon 10:21 AM EST (1/5) 10:35 PM EST (1/5)
Length of Visible Light 10h 48m
Length of Day
9h 51m
Waxing Crescent, 24% of the Moon is Illuminated
Jan 5
Waxing Crescent
Jan 7
First Quarter
Jan 15
Full
Jan 24
Last Quarter
Jan 30
New

Hourly Weather History & Observations

Time (EST) Temp. Windchill Dew Point Humidity Pressure Visibility Wind Dir Wind Speed Gust Speed Precip Events Conditions
12:15 AM 33.4 °F - 28.2 °F 81% 30.30 in 10.0 mi Calm Calm - N/A   Overcast
12:35 AM 33.4 °F 30.4 °F 28.4 °F 82% 30.29 in 10.0 mi NE 3.5 mph - N/A   Overcast
12:55 AM 33.8 °F 29.6 °F 28.9 °F 82% 30.28 in 10.0 mi NE 4.6 mph - N/A   Overcast
1:15 AM 33.8 °F - 28.9 °F 82% 30.29 in 10.0 mi Calm Calm - N/A   Overcast
1:35 AM 33.8 °F 30.8 °F 29.5 °F 84% 30.28 in 7.0 mi NE 3.5 mph - N/A Rain Light Rain
1:55 AM 33.3 °F 30.2 °F 30.9 °F 91% 30.27 in 10.0 mi NNE 3.5 mph - N/A   Overcast
2:15 AM 33.3 °F - 31.5 °F 93% 30.27 in 10.0 mi Calm Calm - N/A   Overcast
2:35 AM 33.3 °F - 31.5 °F 93% 30.27 in 10.0 mi Calm Calm - N/A   Overcast
2:55 AM 33.8 °F - 31.6 °F 92% 30.26 in 10.0 mi Calm Calm - N/A   Overcast
3:15 AM 33.8 °F - 31.8 °F 92% 30.26 in 10.0 mi Calm Calm - N/A   Overcast
3:35 AM 34.0 °F 31.0 °F 32.0 °F 92% 30.27 in 10.0 mi NNE 3.5 mph - N/A   Overcast
3:55 AM 34.2 °F - 32.0 °F 92% 30.25 in 10.0 mi Calm Calm - N/A   Overcast
4:15 AM 34.2 °F - 32.0 °F 92% 30.24 in 10.0 mi Calm Calm - N/A   Overcast
4:35 AM 33.8 °F 29.6 °F 32.4 °F 94% 30.23 in 4.0 mi NNE 4.6 mph - N/A Rain Light Rain
4:55 AM 33.8 °F 30.8 °F 33.6 °F 99% 30.23 in 3.0 mi NNE 3.5 mph - N/A Rain Light Rain
5:15 AM 33.8 °F 29.6 °F 33.8 °F 100% 30.22 in 5.0 mi NE 4.6 mph - N/A   Overcast
5:35 AM 34.0 °F 31.0 °F 34.0 °F 100% 30.22 in 5.0 mi NNE 3.5 mph - N/A   Overcast
5:55 AM 34.2 °F 30.0 °F 34.2 °F 100% 30.22 in 5.0 mi NNE 4.6 mph - N/A Rain Light Rain
6:15 AM 34.3 °F 31.4 °F 34.3 °F 100% 30.22 in 5.0 mi NNW 3.5 mph - N/A   Overcast
6:35 AM 34.7 °F 29.6 °F 34.7 °F 100% 30.20 in 5.0 mi ENE 5.8 mph - N/A   Overcast
6:55 AM 35.1 °F 31.0 °F 35.1 °F 100% 30.21 in 4.0 mi NNE 4.6 mph - N/A   Overcast
7:15 AM 35.1 °F - 35.1 °F 100% 30.22 in 5.0 mi Calm Calm - N/A   Overcast
7:35 AM 34.9 °F 30.8 °F 34.9 °F 100% 30.21 in 4.0 mi North 4.6 mph - N/A   Overcast
7:55 AM 35.1 °F 32.2 °F 35.1 °F 100% 30.21 in 4.0 mi North 3.5 mph - N/A   Overcast
8:15 AM 35.6 °F - 35.6 °F 100% 30.21 in 4.0 mi Calm Calm - N/A   Overcast
8:35 AM 35.6 °F - 35.6 °F 100% 30.21 in 3.0 mi Calm Calm - N/A Rain Light Rain
8:55 AM 35.6 °F 30.7 °F 35.6 °F 100% 30.20 in 3.0 mi North 5.8 mph - 0.01 in   Light Drizzle
9:15 AM 36.0 °F 33.3 °F 36.0 °F 100% 30.20 in 3.0 mi North 3.5 mph - N/A   Overcast
9:35 AM 36.3 °F 32.5 °F 36.3 °F 100% 30.20 in 3.0 mi NNE 4.6 mph - N/A   Overcast
9:55 AM 36.3 °F 33.7 °F 36.3 °F 100% 30.19 in 2.5 mi North 3.5 mph - N/A   Overcast
10:15 AM 36.7 °F 30.5 °F 36.7 °F 100% 30.17 in 1.8 mi NE 8.1 mph - N/A   Light Drizzle
10:35 AM 37.0 °F 31.6 °F 37.0 °F 100% 30.17 in 1.5 mi NNE 6.9 mph - N/A   Overcast
10:55 AM 37.6 °F 31.0 °F 37.6 °F 100% 30.15 in 1.2 mi NE 9.2 mph - N/A   Overcast
11:15 AM 38.3 °F 33.2 °F 38.3 °F 100% 30.15 in 0.8 mi NNE 6.9 mph - N/A   Overcast
11:35 AM 38.7 °F 34.3 °F 38.7 °F 100% 30.13 in 0.5 mi NE 5.8 mph - N/A Fog Fog
11:55 AM 39.2 °F - 39.2 °F 100% 30.10 in 1.0 mi Calm Calm - N/A   Overcast
12:15 PM 39.6 °F - 39.6 °F 100% 30.10 in 0.8 mi Calm Calm - N/A   Overcast
12:35 PM 39.4 °F - 39.4 °F 100% 30.09 in 0.2 mi Calm Calm - N/A Fog Fog
12:55 PM 39.9 °F 37.8 °F 39.9 °F 100% 30.07 in 0.2 mi North 3.5 mph - N/A Fog Fog
1:15 PM 40.1 °F 36.1 °F 40.1 °F 100% 30.06 in 0.8 mi NE 5.8 mph - N/A Rain Light Rain
1:35 PM 39.7 °F - 39.7 °F 100% 30.05 in 1.0 mi Calm Calm - N/A Rain Light Rain
1:55 PM 39.7 °F - 39.7 °F 100% 30.04 in 2.5 mi Calm Calm - 0.02 in Rain Light Rain
2:15 PM 40.1 °F 38.0 °F 40.1 °F 100% 30.05 in 3.0 mi West 3.5 mph - 0.01 in Rain Light Rain
2:35 PM 39.7 °F - 39.7 °F 100% 30.04 in 4.0 mi Calm Calm - 0.02 in   Light Drizzle
2:55 PM 39.7 °F - 39.7 °F 100% 30.03 in 3.0 mi Calm Calm - 0.03 in Rain Light Rain
3:15 PM 40.5 °F - 40.5 °F 100% 30.02 in 3.0 mi Calm Calm - N/A   Overcast
3:35 PM 40.6 °F - 40.6 °F 100% 30.01 in 2.0 mi Calm Calm - N/A   Overcast
3:55 PM 41.0 °F - 41.0 °F 100% 30.01 in 1.8 mi Calm Calm - N/A   Overcast
4:15 PM 41.0 °F - 41.0 °F 100% 30.01 in 0.8 mi Calm Calm - N/A   Overcast
4:35 PM 41.2 °F 39.2 °F 41.2 °F 100% 30.01 in 0.5 mi SW 3.5 mph - N/A Fog Fog
4:55 PM 41.0 °F 39.0 °F 41.0 °F 100% 30.01 in 0.2 mi WSW 3.5 mph - N/A Fog Fog
5:15 PM 41.0 °F 39.0 °F 41.0 °F 100% 30.01 in 0.2 mi WSW 3.5 mph - N/A Fog Fog
5:35 PM 41.0 °F 39.0 °F 41.0 °F 100% 30.00 in 0.2 mi SSW 3.5 mph - N/A Fog Fog
5:55 PM 40.8 °F 37.8 °F 40.8 °F 100% 30.00 in 0.2 mi SW 4.6 mph - N/A Fog Fog
6:15 PM 41.0 °F - 41.0 °F 100% 30.00 in 0.5 mi Calm Calm - N/A Fog Fog
6:35 PM 41.0 °F - 41.0 °F 100% 30.00 in 0.2 mi Calm Calm - N/A Fog Fog
6:55 PM 41.0 °F - 41.0 °F 100% 29.99 in 0.2 mi Calm Calm - N/A Fog Fog
7:15 PM 41.0 °F 39.0 °F 41.0 °F 100% 29.98 in 0.5 mi South 3.5 mph - N/A Fog Fog
7:35 PM 41.0 °F - 41.0 °F 100% 29.97 in 0.5 mi Calm Calm - N/A Fog Fog
7:55 PM 41.0 °F 39.0 °F 41.0 °F 100% 29.96 in 0.2 mi South 3.5 mph - N/A Fog Fog
8:15 PM 40.6 °F 38.6 °F 40.6 °F 100% 29.95 in 0.5 mi South 3.5 mph - N/A Fog Fog
8:35 PM 40.5 °F 38.4 °F 40.5 °F 100% 29.95 in 0.2 mi SSW 3.5 mph - N/A Fog Fog
8:55 PM 40.5 °F 38.4 °F 40.5 °F 100% 29.93 in 0.2 mi SSE 3.5 mph - N/A Fog Fog
9:15 PM 40.5 °F 37.3 °F 40.5 °F 100% 29.92 in 0.2 mi South 4.6 mph - N/A Fog Fog
9:35 PM 40.6 °F 38.6 °F 40.6 °F 100% 29.91 in 0.2 mi South 3.5 mph - N/A Fog Fog
9:55 PM 41.4 °F 37.6 °F 41.4 °F 100% 29.89 in 0.2 mi South 5.8 mph - N/A Fog Fog
10:15 PM 41.9 °F 40.0 °F 41.9 °F 100% 29.88 in 0.2 mi SSW 3.5 mph - N/A Fog Fog
10:35 PM 42.4 °F 39.6 °F 42.4 °F 100% 29.88 in 0.2 mi WNW 4.6 mph - N/A Fog Fog
10:55 PM 42.4 °F 40.7 °F 42.4 °F 100% 29.86 in 0.2 mi SSW 3.5 mph - N/A Fog Fog
11:15 PM 42.3 °F - 42.3 °F 100% 29.85 in 0.2 mi Calm Calm - N/A Fog Fog
11:35 PM 42.4 °F - 42.4 °F 100% 29.84 in 0.2 mi Calm Calm - N/A Fog Fog
11:55 PM 42.3 °F - 42.3 °F 100% 29.82 in 0.2 mi Calm Calm - N/A Fog Fog